Overview Statistics Trail Chart Weather Telemetry Raw packets
 

This is the latest recevied weather packets stored in our database for station/object DP0GVN-13. If no packets are shown the sender has not sent any weather packets the latest 10 day(s).

<< 8 9 10 11 12 13 14 >>
Time Temp. Humidity Pressure Rain* Wind** Luminosity Snow
1777735812 -25.56° C 74% 989.5 hPa - - 0 W/m² -
1777734012 -26.67° C 76% 990 hPa - - 1 W/m² -
1777732212 -25° C 79% 989.8 hPa - - 1 W/m² -
1777730412 -25.56° C 80% 989.9 hPa - - 1 W/m² -
1777728612 -25.56° C 79% 990.1 hPa - - 1 W/m² -
1777726812 -25.56° C 81% 990.4 hPa - - 1 W/m² -
1777725012 -26.67° C 78% 990.5 hPa - - 1 W/m² -
1777723212 -30° C 79% 990.7 hPa - - 1 W/m² -
1777721412 -28.89° C 76% 990.8 hPa - - 1 W/m² -
1777719612 -30.56° C 78% 991 hPa - - 1 W/m² -
1777717812 -30.56° C 79% 991.2 hPa - - 1 W/m² -
1777716012 -31.67° C 77% 991.4 hPa - - 1 W/m² -
1777714212 -31.67° C 74% 991.5 hPa - - 0 W/m² -
1777712412 -32.78° C 74% 991.6 hPa - - 0 W/m² -
1777710612 -30.56° C 77% 991.6 hPa - - 0 W/m² -
1777708812 -30.56° C 79% 991.5 hPa - - 0 W/m² -
1777707012 -30.56° C 76% 991.8 hPa - - 0 W/m² -
1777705229 -30.56° C 72% 991.7 hPa - - 0 W/m² -
1777703412 -30.56° C 71% 991.7 hPa - - 0 W/m² -
1777701612 -31.67° C 71% 991.6 hPa - - 0 W/m² -
1777699812 -31.67° C 72% 991.8 hPa - - 0 W/m² -
1777698012 -30.56° C 70% 991.8 hPa - - 0 W/m² -
1777696212 -31.67° C 70% 991.6 hPa - - 0 W/m² -
1777694412 -32.78° C 72% 991.6 hPa - - 0 W/m² -
1777692612 -33.89° C 70% 991.6 hPa - - 0 W/m² -

* Rain since midnight (hover to see other rain measurements)
** Current wind speed in m/s (hover to see current wind gust speed)